Tracking 30056 objects as of 10-Dec-2024
HD Live streaming from Space Station
objects crossing your sky now

THOR BURNER 2A DEB

Track THOR BURNER 2A DEB now!
10-day predictions


NORAD ID: 28593
Int'l Code: 1974-015E
Perigee: 730.9 km
Apogee: 814.9 km
Inclination: 99.1 °
Period: 100.2 minutes
Semi major axis: 7143 km
RCS: 0.0137 m2 (small)
Launch date: March 16, 1974
Source: United States (US)
Launch site: AIR FORCE WESTERN TEST RANGE (AFWTR)

Note: This is SATELLITE DEBRIS
Your satellite tracking list
Your tracking list is empty




NASA's NSSDC Master Catalog

Two Line Element Set (TLE):
1 28593U 74015E   24343.73185215  .00004096  00000-0  13480-2 0  9999
2 28593  99.1151 348.1601 0058780 309.1251  50.4717 14.37807167 35238
Source of the keplerian elements: AFSPC